Delta Virtual Airport Information Service

Seattle Tacoma International Airport

ICAO: KSEA Country: United States
Latitude: 47.4482 Longitude: -122.311
Latest Arrival : DALJUMP (KMGM-KSEA) Latest Departure : DAL1188 (1D) (KSEA-PAFA)


WX CaptureLIVE
Data provided by noaa.gov | Fetched at 17:58:50

METAR : KSEA 172053Z 36009KT 10SM CLR 30/13 A2997 RMK AO2 SLP153 T03000133 58014

TAF : KSEA 172053Z 36009KT 10SM CLR 30/13 A2997 RMK AO2 SLP153 T03000133 58014


Runway Data for KSEA
Data provided by openaviationdata.com

Runway ID Mag Var Hdg Length Elevation Surface ILS Freq ILS Id ILS Slope
16L 19 161° 11894 ft 362 ft Asphalt 110.3 ISNQ 3
16R 19 161° 9421 ft 362 ft Concrete 111.7 ISZI 3
34L 19 341° 9421 ft 362 ft Concrete 111.7 ITUC 3
34R 19 341° 11894 ft 362 ft Asphalt 110.3 ISEA 2

Seattle Tacoma International Airport, United States
Use only for reference purposes



Not for navigational purposes.